Regional Weather Roundup
Issued by NWS

Home | Current Version | Previous Version | Text Only | Print | Product List | Glossary On
Versions: 1 2 3 4 5 6 7 8 9 10 11 12 13 14 15 16 17 18 19 20 21 22 23 24 25 26 27
000
ASUS44 KLIX 230814
RWRLA
LOUISIANA WEATHER ROUNDUP
NATIONAL WEATHER SERVICE NEW ORLEANS LA
300 AM CDT WED AUG 23 2017

NOTE: "FAIR" INDICATES FEW OR NO CLOUDS BELOW 12,000 FEET WITH NO
      SIGNIFICANT WEATHER AND/OR OBSTRUCTIONS TO VISIBILITY.
      SKY/WX - SKY CONDITION AND SIGNIFICANT WEATHER.
      TMP - AIR TEMPERATURE.    DP   - DEWPOINT TEMPERATURE.
      RH  - RELATIVE HUMIDITY.  PRES - PRESSURE.
      HX  - HEAT INDEX.         WCI  - WIND CHILL INDEX.

*  THESE STATIONS ARE NOT NWS OR FAA STATIONS AND ARE NOT UNDER
   NWS QUALITY CONTROL.

LAZ040-048-061>063-065-066-069-230900-
SOUTHEAST LOUISIANA

CITY           SKY/WX    TMP DP  RH WIND       PRES   REMARKS
N.O. INTL ARPT MOCLDY    80  78  94 CALM      29.99F
N.O. LAKEFRONT PTCLDY    84  79  85 NW9       29.99F HX  96
N.O. DOWNTOWN* FAIR      83  77  82 N3        30.00F
RESERVE*       FAIR      76  73  91 N5        30.00F
SLIDELL        PTCLDY    76  75  97 N5        29.99F
BATON ROUGE    CLEAR     73  71  93 CALM      30.00F
BOOTHVILLE     CLOUDY    83  79  88 CALM      29.99S
BELLE CHASSE   NOT AVBL
BOGALUSA*      NOT AVBL
GALLIANO*      PTSUNNY   79  75  89 CALM      29.98F
NEW ROADS*     FAIR      73  73  99 CALM      30.00F
GONZALES*      FAIR      73  72  98 CALM      29.99S
HAMMOND*       CLEAR     73  72  94 CALM      30.01F
HOUMA*         NOT AVBL
PORT FOURCHON* MOSUNNY   84  75  74 N6        29.97F

$$

LAZ041-044-053-054-230900-
SOUTHWEST LOUISIANA

CITY           SKY/WX    TMP DP  RH WIND       PRES   REMARKS
LAKE CHARLES   CLOUDY    77  75  93 CALM      29.98F
LAFAYETTE      CLEAR     75  75 100 CALM      30.00F
PATTERSON      PTCLDY    74  73  97 E5        29.99F
SALT POINT       N/A     75  73  93 CALM      29.97F
NEW IBERIA     CLEAR     74  71  91 CALM      30.01F
CHENAULT AIRPK CLOUDY    75  74  98 CALM      29.99F

$$

LAZ027-028-230900-
CENTRAL LOUISIANA

CITY           SKY/WX    TMP DP  RH WIND       PRES   REMARKS
FORT POLK      CLOUDY    74  73  96 CALM      29.99F
ALEXANDRIA INT   N/A    N/A N/A N/A MISG      29.98F
ALEXANDRIA     FOG       73  73 100 CALM      29.99F VSB 1/2

$$

LAZ001-002-230900-
NORTHWEST LOUISIANA

CITY           SKY/WX    TMP DP  RH WIND       PRES   REMARKS
SHREVEPORT     PTCLDY    75  74  96 CALM      29.99F
BARKSDALE AFB  CLEAR     75  75 100 SE5       29.99F
DTN SHREVEPORT CLOUDY    81  73  76 SW5       29.99F

$$

LAZ014-016-230900-
NORTHEAST LOUISIANA

CITY           SKY/WX    TMP DP  RH WIND       PRES   REMARKS
MONROE         CLEAR     75  73  93 CALM      29.99F
TALLULAH       CLEAR     75  73  93 CALM      29.98F FOG

$$





USA.gov is the U.S. government's official web portal to all federal, state and local government web resources and services.